{"data":{"norad_id":64913,"intl_designator":"2025-157K","name":"STARLINK-34659","alt_names":[],"object_type":"PAYLOAD","status":"ACTIVE","operator":null,"country":"US","launch_date":"2025-07-26","launch_site_code":"AFETR","launch_vehicle":null,"mission":null,"orbit_class":"UNKNOWN","rcs_meters":null,"size_class":null,"mass_kg":null,"dimensions":null,"purposes":["comms"],"wikipedia_slug":null,"has_3d_model":false,"image_url":null,"decayed_at":null,"tle_current":{"epoch":"2026-05-25T00:13:33.686688Z","epoch_age_seconds":67522,"freshness":"FRESH","line1":"1 64913U 25157K   26145.00941767  .00025744  00000+0  83798-3 0  9994","line2":"2 64913  53.1594 350.8211 0000423 100.4322 259.6727 15.31718637 47767","mean_motion":15.31718637,"eccentricity":4.23e-5,"inclination_deg":53.1594,"raan_deg":350.8211,"arg_perigee_deg":100.4322,"mean_anomaly_deg":259.6727,"bstar":0.00083798,"rev_number":4776,"period_min":94.012044067072,"perigee_km":470.39473471484,"apogee_km":470.97414500865,"semimajor_km":6848.8214398617,"source":"CELESTRAK","updated_at":"2026-05-25T13:38:20.621412Z"}}}